Zurück zum Katalog

SL-12 R/B(2)

AktivGEO
NORAD 23171·ROCKET BODY·🇷🇺 Russia

Gestartet Jul 6, 1994 von Baikonur Cosmodrome

Loading…

TLE

AktuellSource: Space-Track

Epoche: Sep 14, 2026, 22:24 UTC

1 23171U 94038D   26257.93370079 -.00000097  00000-0  00000-0 0  9995
2 23171  14.2033 353.2975 0023434 154.0128 193.6600  0.99432012116902

Verfolge SL-12 R/B(2) in Echtzeit mit AllMySat

Download on the App Store